Voltar ao catálogo

STARLINK-3551

AtivoComunicaçõesVLEO
NORAD 51887·PAYLOAD·🇺🇸 United States

Lançado Mar 3, 2022 de Cape Canaveral Space Force Station

Loading…

Próximas Passagens (próximas 24 horas)

TLE

AtualizadoSource: CelesTrak SupGP

Época: Sep 15, 2026, 02:16 UTC

1 51887C 22022AM  26258.09493056 -.00021124  00000+0 -62424-3 0  2586
2 51887  53.1582 212.6431 0001323  87.5468 104.4094 15.34394273    15

Acompanhe STARLINK-3551 em tempo real com AllMySat

Download on the App Store